Wind_Speed
3 4 3 3 3 4 3 4 4 4 5 5 5 5 5 5 5 5 4 4 4 5 5 6 6 6 7 7 7 8 7 7 7 7 7 7 8 8 8 8 8 7 7
4 4 4 4 4 5 5 4 5 5 5 6 6 6 6 6 6 6 6 6 6 6 6 7 7 8 8 8 8 9 8 8 8 8 8 8 9 9 9 9 9 8 8
4 5 5 5 6 5 5 5 6 6 7 7 7 7 7 6 7 7 7 7 7 7 7 7 8 8 8 8 9 9 9 9 9 9 9 9 9 9 10 10 9 9 8
5 6 6 6 6 6 7 7 8 8 8 8 8 7 7 7 7 7 7 7 7 8 8 8 8 8 8 9 9 10 10 10 10 10 10 11 11 10 10 10 10 10 10
6 6 6 7 7 7 7 8 8 8 8 8 7 7 7 7 7 8 8 8 8 8 8 8 9 9 9 9 9 10 11 11 11 11 11 12 12 12 12 12 11 11 11
6 7 7 7 7 8 8 8 8 8 8 8 8 8 8 8 8 8 8 8 9 9 9 9 9 9 10 10 10 10 11 12 12 12 12 12 12 12 13 13 13 12 12
8 7 8 8 8 8 8 8 9 9 9 9 9 8 8 9 9 9 8 9 8 8 8 9 9 10 10 10 11 11 11 11 11 12 12 12 12 13 13 14 14 13 13
9 9 8 8 8 8 9 8 9 9 9 9 9 9 9 9 9 9 9 8 8 8 8 9 9 9 9 10 10 10 11 11 11 11 12 12 12 12 13 13 13 13 13
9 9 9 9 8 9 8 8 8 8 9 9 9 9 8 8 8 8 8 8 8 8 8 8 8 8 9 9 9 9 9 10 10 10 11 11 12 12 13 13 13 13 13
9 9 9 9 9 8 8 8 8 8 8 9 8 8 7 8 8 8 8 8 8 8 8 8 8 8 8 7 8 8 8 8 8 9 10 10 11 12 12 12 12 13 13
9 9 9 9 9 8 7 7 8 8 8 8 8 7 7 7 8 8 8 8 8 7 7 7 7 7 6 6 6 7 7 7 7 8 8 9 10 11 11 11 12 12 13
9 9 9 9 8 8 7 7 7 7 7 7 7 8 8 8 8 8 8 7 7 7 7 7 7 6 5 5 5 6 6 7 7 7 7 8 9 9 10 10 11 11 13
9 9 9 8 8 7 7 6 7 7 7 7 7 8 8 8 7 8 7 6 6 6 6 6 6 5 5 5 5 5 6 6 6 6 6 7 8 8 9 9 10 10 11
8 8 8 8 7 7 7 6 6 7 7 7 6 6 6 7 7 8 7 6 6 5 5 5 4 4 4 4 5 5 5 5 4 5 5 6 6 7 8 9 9 9 10
8 7 7 7 7 7 7 7 7 7 7 6 6 6 6 7 7 7 7 7 6 5 5 4 4 3 3 3 4 4 4 4 3 3 4 4 5 6 7 7 8 8 9
7 7 7 7 7 7 7 7 7 7 7 6 6 6 6 6 6 7 6 6 5 4 4 4 3 3 3 3 3 3 3 3 3 3 3 3 4 5 6 6 6 7 8
7 7 7 7 7 7 7 6 6 6 6 6 6 6 5 5 5 4 5 5 4 3 3 3 3 3 3 3 3 3 2 3 3 3 3 4 4 4 5 5 5 6 6
8 7 7 7 7 6 6 6 6 6 6 5 5 5 5 4 4 3 4 4 3 3 2 2 2 2 2 2 3 3 2 2 3 3 3 3 3 3 4 4 4 5 5
8 8 7 7 7 7 6 6 6 6 5 4 4 5 4 4 4 4 4 4 4 3 2 1 1 1 1 1 2 1 2 2 3 3 3 3 3 3 3 4 4 4 5
8 8 7 7 7 7 6 6 6 6 5 4 5 4 4 4 4 3 3 4 4 3 2 2 1 1 0 0 0 1 1 2 2 2 2 2 3 3 3 3 4 4 5
9 8 8 7 7 7 7 7 7 6 5 5 5 5 4 4 4 3 3 4 3 3 2 2 1 1 1 1 0 0 1 2 2 2 2 3 3 3 4 4 5 5 5
9 9 9 8 8 8 7 6 6 6 5 5 5 5 4 3 4 4 4 3 3 3 2 2 2 2 1 1 1 1 1 1 2 2 2 3 3 3 4 4 5 6 6
9 9 9 8 8 8 7 6 6 6 5 4 4 5 5 4 4 4 4 3 3 3 2 2 2 2 1 1 0 1 1 1 1 2 2 2 3 3 4 5 6 6 6
10 9 9 9 8 8 8 8 7 6 5 5 5 5 5 5 5 4 4 3 3 2 2 2 2 2 1 1 0 0 0 1 1 1 2 2 3 4 5 6 6 5 5
11 10 9 9 9 9 9 8 7 6 7 6 6 5 5 5 5 5 4 3 3 2 2 2 2 2 1 1 0 0 1 1 1 1 2 2 3 4 5 5 6 6 5
11 11 11 10 9 9 9 8 8 8 8 8 7 7 6 6 5 5 5 4 3 3 2 2 2 2 2 1 1 1 1 1 1 1 2 3 4 5 5 5 6 6 5
Wind_Direction
312 317 311 308 310 305 302 292 286 284 293 298 296 280 268 264 264 260 263 264 266 268 263 263 259 257 252 249 246 245 247 246 248 249 246 245 250 255 257 258 258 265 266
305 306 301 296 298 300 296 287 282 280 280 280 283 279 272 264 264 263 263 263 267 268 269 269 266 264 259 252 249 250 252 251 250 251 251 250 250 253 255 258 262 265 264
301 301 299 291 288 290 286 280 278 277 276 275 277 274 270 267 262 264 264 265 267 267 267 268 267 267 261 257 254 253 256 257 256 255 256 256 253 253 255 257 261 259 259
303 301 296 291 286 284 283 279 277 275 274 277 275 267 269 273 271 267 266 269 269 270 268 268 267 266 264 262 260 257 257 258 258 258 260 259 256 254 255 257 257 258 259
302 300 302 296 289 283 278 278 276 272 271 273 272 268 265 270 270 267 268 269 269 271 268 269 269 267 266 265 263 262 258 257 257 259 260 261 259 257 257 257 257 258 257
302 301 296 296 292 286 281 276 274 270 271 272 269 266 263 266 269 268 269 270 271 273 270 269 268 266 269 268 264 264 265 261 258 260 262 265 261 259 260 257 257 258 257
300 297 296 294 293 291 285 279 272 271 273 273 269 267 265 267 270 268 274 277 277 277 277 274 271 268 270 272 269 265 266 265 262 263 263 263 261 261 263 259 257 257 256
299 294 292 290 291 290 286 277 272 271 270 269 270 269 265 269 273 269 272 277 282 282 280 278 275 272 273 272 267 265 263 266 268 267 265 264 263 263 264 262 258 256 257
297 294 290 290 287 287 284 278 276 274 273 271 271 264 261 267 270 266 266 270 275 279 278 277 276 274 275 272 268 267 269 271 271 270 267 266 265 265 265 263 260 257 257
293 292 290 290 286 284 281 280 279 277 277 279 275 260 259 264 269 265 267 270 269 270 273 277 279 275 275 274 270 267 269 275 275 273 270 270 270 269 268 267 262 260 259
291 290 290 290 286 283 281 281 281 278 277 278 276 263 260 262 265 267 267 268 266 266 272 279 280 276 273 272 270 271 271 275 277 277 275 275 274 272 268 267 265 261 260
294 291 290 289 287 283 280 279 279 275 276 275 274 269 263 262 264 267 266 263 267 266 271 281 277 270 266 267 270 274 274 277 282 281 279 277 276 275 272 270 267 264 262
296 293 291 290 287 285 280 279 278 273 275 277 273 271 266 265 265 262 259 257 261 261 268 272 268 263 260 264 272 277 278 281 288 287 285 279 279 280 277 273 270 270 269
296 294 292 294 289 285 284 281 279 276 281 278 272 266 269 267 265 258 254 253 259 260 265 263 260 257 260 267 273 281 287 288 291 290 291 286 285 286 282 277 275 276 276
298 296 292 293 290 288 287 289 285 278 278 271 267 261 259 263 263 257 252 255 259 257 259 256 255 250 266 272 274 281 289 297 299 301 300 294 293 295 291 286 284 282 280
301 294 287 286 287 290 287 286 285 279 279 269 266 257 258 254 261 258 253 255 252 250 250 249 249 250 266 266 270 276 282 293 310 313 310 304 302 299 298 298 294 288 287
304 294 289 286 286 287 289 285 282 279 276 269 265 259 259 255 257 250 240 242 232 229 241 245 246 248 250 256 264 265 279 296 311 318 307 309 309 312 313 307 300 302 301
304 298 291 284 284 282 285 281 275 272 272 268 255 255 257 253 240 242 233 221 218 221 228 230 218 227 250 259 259 258 286 317 322 326 317 317 320 326 324 319 309 307 309
302 301 295 283 279 275 273 273 267 267 265 258 247 247 247 239 240 241 220 212 213 208 203 194 176 192 242 266 271 282 305 323 329 328 334 334 328 331 331 329 326 321 319
296 297 295 286 275 272 269 269 270 264 254 246 238 235 231 239 239 221 204 201 199 193 186 187 183 169 177 271 328 335 342 344 345 347 359 359 351 344 342 340 337 334 332
289 291 291 285 272 266 265 269 270 262 250 243 231 220 217 222 212 195 192 192 190 184 180 182 173 153 133 96 79 52 21 19 23 21 16 12 4 359 356 351 351 342 330
282 286 290 282 266 262 260 263 263 250 245 233 213 206 200 200 196 189 182 182 182 176 172 171 163 156 126 96 69 59 44 35 31 22 3 353 353 354 348 349 352 350 345
279 278 279 280 267 257 254 253 249 248 245 220 212 213 206 200 199 197 185 175 173 173 172 163 153 142 123 103 74 38 17 48 28 11 3 351 349 346 345 348 349 349 353
279 276 274 275 265 256 250 243 237 237 221 212 208 210 204 195 191 193 194 191 189 188 180 177 172 164 147 152 114 47 6 346 353 347 349 346 350 351 350 347 347 353 355
277 272 268 264 260 253 249 241 232 224 217 212 210 214 207 200 195 194 196 199 195 193 193 198 199 196 195 226 259 299 326 344 345 346 347 342 340 343 340 339 344 346 342
272 269 261 254 254 251 243 238 229 220 217 214 214 212 206 202 198 196 198 208 208 200 197 198 203 207 208 226 270 287 302 313 336 331 323 328 332 336 339 341 345 347 348
Height
5892 5891 5891 5891 5890 5890 5890 5890 5890 5890 5890 5889 5889 5888 5888 5888 5888 5888 5888 5888 5887 5887 5887 5887 5887 5887 5886 5886 5886 5886 5886 5886 5886 5886 5886 5886 5886 5885 5885 5885 5885 5885 5885
5892 5891 5891 5890 5890 5889 5889 5889 5889 5889 5889 5888 5888 5888 5887 5887 5887 5887 5887 5887 5886 5886 5886 5885 5885 5885 5885 5885 5885 5885 5885 5885 5885 5885 5884 5884 5884 5884 5884 5884 5884 5884 5884
5891 5890 5890 5889 5889 5889 5888 5888 5888 5888 5887 5887 5887 5887 5886 5886 5886 5886 5886 5885 5885 5885 5884 5884 5884 5884 5883 5883 5883 5883 5883 5883 5883 5883 5883 5883 5882 5882 5882 5882 5882 5882 5882
5890 5889 5889 5888 5888 5887 5887 5887 5887 5886 5886 5886 5886 5886 5885 5885 5885 5885 5884 5884 5884 5883 5883 5882 5882 5882 5882 5882 5881 5881 5881 5881 5881 5881 5881 5881 5880 5880 5880 5880 5880 5880 5880
5888 5888 5887 5887 5886 5886 5886 5885 5885 5885 5884 5884 5884 5884 5884 5884 5884 5883 5883 5882 5882 5882 5881 5881 5880 5880 5880 5880 5879 5879 5879 5878 5878 5878 5878 5878 5878 5878 5878 5878 5878 5878 5878
5887 5886 5886 5885 5884 5884 5884 5884 5883 5883 5883 5883 5883 5883 5882 5882 5882 5881 5881 5880 5880 5880 5879 5879 5878 5878 5878 5877 5877 5877 5876 5876 5876 5876 5876 5876 5876 5875 5875 5875 5876 5876 5876
5885 5885 5884 5883 5883 5882 5882 5882 5881 5881 5881 5881 5881 5881 5880 5880 5880 5879 5879 5878 5878 5878 5877 5877 5876 5876 5876 5875 5874 5874 5874 5874 5874 5874 5874 5873 5873 5873 5873 5873 5873 5873 5873
5884 5883 5882 5881 5881 5880 5880 5880 5879 5879 5879 5879 5878 5878 5878 5878 5878 5877 5877 5876 5876 5876 5875 5875 5874 5874 5873 5873 5872 5872 5871 5871 5871 5871 5871 5871 5871 5870 5870 5870 5870 5870 5871
5881 5881 5880 5879 5879 5878 5878 5877 5877 5877 5877 5877 5876 5876 5876 5876 5876 5875 5875 5874 5874 5874 5873 5873 5872 5872 5871 5870 5870 5869 5869 5869 5869 5869 5868 5868 5868 5868 5868 5868 5868 5868 5868
5879 5879 5878 5877 5876 5876 5876 5875 5875 5875 5875 5875 5874 5874 5874 5874 5874 5873 5873 5873 5872 5872 5871 5871 5870 5869 5869 5868 5868 5867 5867 5867 5866 5866 5866 5866 5866 5865 5865 5865 5865 5865 5865
5877 5877 5876 5875 5875 5874 5874 5873 5873 5873 5873 5873 5872 5872 5872 5872 5872 5872 5871 5871 5870 5870 5869 5869 5868 5867 5867 5867 5866 5866 5866 5865 5864 5864 5864 5864 5863 5863 5863 5863 5862 5862 5863
5876 5875 5874 5873 5873 5872 5872 5872 5871 5871 5871 5871 5871 5870 5870 5870 5870 5870 5869 5869 5868 5868 5867 5867 5866 5866 5866 5865 5865 5864 5864 5863 5863 5862 5862 5862 5861 5861 5860 5860 5860 5860 5860
5874 5873 5872 5872 5871 5871 5870 5870 5869 5869 5869 5869 5869 5868 5868 5868 5868 5868 5867 5867 5867 5866 5866 5865 5865 5864 5864 5864 5863 5863 5862 5862 5861 5861 5860 5860 5859 5859 5858 5858 5858 5858 5858
5872 5871 5870 5870 5869 5869 5869 5868 5868 5868 5867 5867 5866 5866 5866 5866 5866 5866 5866 5865 5865 5865 5864 5864 5863 5863 5863 5863 5862 5862 5861 5860 5860 5859 5859 5858 5858 5857 5857 5856 5856 5856 5855
5870 5869 5869 5868 5868 5867 5867 5866 5866 5866 5865 5865 5865 5865 5864 5864 5864 5864 5864 5864 5864 5863 5863 5862 5862 5862 5862 5861 5861 5861 5860 5859 5859 5858 5858 5857 5857 5856 5855 5855 5854 5854 5853
5868 5867 5867 5866 5866 5865 5865 5865 5864 5864 5863 5863 5863 5863 5862 5862 5862 5862 5862 5862 5862 5862 5862 5862 5862 5861 5861 5861 5860 5860 5859 5859 5858 5858 5857 5856 5856 5855 5854 5854 5853 5852 5851
5866 5865 5865 5864 5864 5864 5863 5863 5862 5862 5862 5861 5861 5861 5861 5861 5861 5861 5861 5861 5861 5861 5861 5861 5861 5860 5860 5860 5859 5859 5859 5858 5858 5857 5856 5856 5855 5854 5853 5853 5852 5851 5850
5864 5863 5863 5862 5862 5862 5861 5861 5861 5860 5860 5860 5860 5859 5859 5859 5859 5859 5860 5860 5860 5860 5860 5860 5860 5860 5859 5859 5859 5858 5858 5857 5857 5856 5856 5855 5854 5853 5853 5852 5851 5850 5849
5862 5861 5861 5860 5860 5859 5859 5859 5859 5858 5858 5858 5858 5858 5858 5858 5858 5858 5859 5859 5859 5860 5860 5860 5859 5859 5859 5859 5858 5858 5857 5857 5857 5856 5855 5854 5854 5853 5852 5851 5850 5849 5848
5860 5859 5859 5858 5858 5857 5857 5857 5857 5857 5857 5857 5857 5857 5857 5857 5857 5857 5858 5858 5859 5859 5859 5859 5859 5859 5859 5858 5858 5858 5857 5857 5856 5856 5855 5854 5854 5853 5852 5851 5850 5849 5848
5857 5857 5856 5856 5856 5856 5856 5855 5855 5855 5855 5855 5855 5855 5856 5856 5856 5857 5858 5858 5859 5859 5859 5859 5859 5859 5858 5858 5858 5858 5857 5857 5856 5856 5855 5854 5854 5853 5852 5851 5850 5849 5847
5855 5854 5854 5854 5853 5853 5853 5853 5853 5853 5853 5854 5854 5854 5855 5856 5856 5857 5857 5858 5858 5858 5858 5859 5858 5858 5858 5858 5858 5857 5857 5857 5856 5856 5855 5855 5854 5853 5852 5851 5850 5849 5847
5852 5852 5852 5852 5851 5851 5851 5852 5852 5852 5852 5853 5853 5854 5855 5855 5856 5857 5857 5858 5858 5858 5858 5858 5858 5858 5858 5858 5857 5858 5857 5857 5856 5856 5855 5855 5854 5853 5852 5851 5850 5849 5847
5849 5849 5849 5849 5849 5849 5849 5850 5850 5851 5851 5852 5853 5854 5854 5855 5855 5856 5857 5857 5857 5858 5858 5858 5858 5858 5858 5857 5857 5857 5857 5857 5856 5856 5856 5855 5854 5853 5852 5851 5850 5849 5847
5846 5847 5847 5847 5847 5847 5847 5848 5848 5849 5850 5851 5852 5853 5854 5855 5855 5856 5856 5857 5857 5857 5858 5858 5858 5858 5857 5857 5857 5857 5857 5856 5856 5856 5855 5855 5854 5853 5852 5851 5850 5848 5847
5843 5843 5844 5844 5844 5845 5845 5846 5847 5848 5849 5850 5851 5852 5853 5854 5854 5855 5856 5856 5857 5857 5857 5857 5857 5857 5857 5857 5857 5856 5856 5856 5856 5855 5855 5854 5853 5853 5852 5851 5849 5848 5847